RH
1 1 2 2 2 2 2 2 1 1 2 2 2 2 1 2 2 2 2 1 2 2 3 4 5 6 7 8 8 10 15 19 23 23 21 15 9 7 4 6 5 6 6 6 6 4 8 6 9 12 19 46 45 57 91 73 73 96 93 92 88 79 74 75 76 76 73 64 66 75 77 86 90 81 78 78 85 88 85 90 86 85 82 76 84 80 73 74
2 2 2 2 2 2 2 2 2 2 1 1 2 2 1 1 1 1 2 1 2 2 2 2 3 5 6 7 8 8 10 14 20 23 22 17 13 10 6 5 5 6 6 6 6 4 7 5 7 11 11 34 41 50 83 74 63 76 80 87 82 74 79 77 76 78 72 67 71 79 83 86 89 83 80 82 89 89 85 93 92 90 87 73 78 82 73 72
2 2 2 2 2 2 2 2 2 2 1 2 1 1 2 1 1 1 1 1 1 1 1 2 2 3 4 6 7 8 9 9 14 20 22 20 17 14 10 7 4 6 6 6 8 6 7 6 6 7 6 30 47 50 72 78 67 65 72 80 71 68 81 79 75 75 71 75 79 86 87 80 79 76 78 84 86 86 86 93 91 90 92 76 71 79 75 72
2 2 2 2 2 2 2 2 2 2 2 2 1 1 2 1 2 1 1 2 1 2 1 2 1 1 3 4 6 7 7 7 9 14 19 22 20 19 15 10 6 5 7 7 8 8 7 7 6 8 17 36 52 57 68 75 71 70 75 76 67 70 81 79 78 77 75 78 80 88 84 67 71 77 79 84 84 83 83 90 93 90 88 74 64 73 76 73
1 1 1 1 2 1 2 2 2 2 2 2 2 2 2 1 2 1 2 2 1 2 1 1 1 1 2 2 5 5 5 14 15 10 13 19 21 22 19 14 9 5 7 7 8 9 8 11 8 9 32 51 55 58 59 62 67 69 74 76 73 77 78 75 78 75 75 80 79 87 82 63 72 83 82 83 80 79 79 83 94 93 82 69 59 65 73 74
1 1 1 1 1 1 1 2 2 2 2 2 2 2 2 1 2 1 2 1 1 2 1 2 1 1 2 1 3 3 5 17 18 10 11 14 19 23 21 17 11 6 6 6 8 8 9 19 16 8 33 54 54 57 52 50 59 62 66 71 75 80 76 75 79 70 72 82 78 80 80 70 77 84 83 82 72 71 76 77 86 90 79 64 56 59 67 72
2 1 2 1 1 2 1 2 2 2 2 2 2 2 2 2 2 2 1 2 2 2 1 1 1 1 2 1 2 3 4 9 10 10 12 12 15 21 23 20 13 8 6 5 8 7 10 25 21 11 32 50 48 52 50 43 51 55 56 63 72 78 77 79 81 73 74 81 79 78 79 76 79 81 82 83 74 72 79 82 84 81 74 64 56 55 60 67
2 2 2 2 2 2 1 2 2 3 3 2 3 2 3 2 2 2 1 2 1 2 2 1 2 1 1 2 1 2 4 4 6 8 10 12 15 19 23 24 18 12 7 5 8 6 12 23 19 18 36 45 39 43 46 43 47 50 50 56 66 72 76 80 80 77 76 76 76 78 78 78 79 77 78 82 83 83 85 92 88 73 68 65 56 53 57 62
3 3 2 2 2 2 2 2 2 3 3 3 3 3 3 3 2 3 2 2 2 2 2 1 2 1 2 2 -1 6 9 4 5 5 7 12 17 19 22 26 24 19 11 6 8 9 19 28 22 24 34 36 33 34 40 43 44 44 43 45 50 59 71 77 77 77 77 73 71 72 76 77 77 77 79 80 83 87 91 95 86 72 70 67 58 54 56 58
3 3 3 3 2 3 2 2 2 2 3 3 3 3 3 3 3 3 2 3 2 2 2 1 2 1 3 1 1 16 16 3 4 5 5 9 15 22 23 24 27 24 15 8 7 12 26 38 33 30 32 33 30 28 34 41 41 42 42 41 42 49 61 71 76 76 73 73 69 70 73 73 75 77 77 79 81 87 94 89 73 68 74 70 61 53 52 56
3 2 2 3 2 3 2 2 2 2 3 3 2 3 2 2 3 3 3 3 2 2 2 1 2 1 3 1 4 19 15 4 5 4 4 6 9 18 22 23 24 25 20 10 8 12 25 40 44 39 35 32 30 26 29 35 38 39 39 41 43 45 51 61 71 72 71 72 67 69 70 69 75 72 71 80 79 80 88 83 68 64 72 73 70 58 50 55
3 2 2 2 2 3 2 2 2 2 3 2 3 2 2 2 2 3 3 2 2 2 2 2 2 1 2 1 3 8 6 4 5 2 4 5 5 10 19 22 21 23 23 16 13 13 23 40 45 41 34 26 24 23 25 28 30 31 32 35 39 40 42 49 59 66 72 70 62 66 68 66 72 68 70 78 74 77 82 79 74 71 73 76 82 72 53 55
3 3 2 2 2 2 2 2 2 2 2 2 3 2 2 2 1 3 3 3 3 2 2 2 1 2 3 4 3 3 2 2 2 3 3 4 5 5 12 22 22 21 21 24 27 18 22 40 44 39 34 27 19 20 25 26 25 26 29 31 31 31 33 40 49 59 68 66 61 66 64 61 68 68 71 72 69 80 84 79 77 78 77 73 84 82 60 57
3 3 2 2 2 2 2 2 2 2 2 2 2 2 2 1 2 2 2 3 3 2 3 2 3 3 2 4 3 3 3 2 2 2 2 3 5 4 6 15 21 23 18 21 34 33 27 40 46 39 36 30 21 25 30 28 25 24 25 26 25 23 26 32 42 52 60 63 64 65 61 59 64 66 71 72 71 77 76 75 75 75 78 77 83 83 67 58
3 2 2 2 2 2 2 2 2 2 2 2 2 2 2 1 2 1 2 4 3 4 3 2 4 2 7 13 6 4 4 3 3 2 2 2 3 5 4 6 12 23 23 14 21 33 37 44 47 41 39 33 24 28 31 27 25 25 24 22 22 21 22 26 35 46 53 56 62 62 59 58 61 64 69 76 78 73 67 69 70 67 78 89 87 77 65 57
4 3 2 1 2 2 2 2 2 2 2 2 2 1 2 1 2 2 3 4 4 6 4 5 6 1 17 27 11 5 7 5 5 3 3 2 3 6 6 5 6 16 28 19 10 21 37 47 46 40 40 33 24 24 26 23 21 22 23 21 21 21 21 23 31 42 47 51 57 58 57 58 59 63 69 73 74 72 65 66 69 64 71 91 91 72 58 51
4 3 2 1 2 2 1 2 1 2 2 1 2 1 2 2 2 3 2 4 6 6 4 4 5 7 18 21 12 12 12 9 9 7 5 3 3 5 6 10 10 15 28 25 12 13 24 34 38 37 37 32 24 21 21 18 15 17 21 21 21 21 20 21 27 39 44 47 53 54 54 57 56 59 73 79 75 75 70 63 71 70 69 86 90 72 57 47
5 3 3 1 1 1 2 2 1 2 1 1 2 1 2 2 2 3 3 6 4 6 14 10 6 20 26 19 15 14 9 8 8 8 9 7 4 3 6 12 17 21 30 29 18 13 16 23 31 34 33 30 26 22 17 14 13 13 17 20 21 20 21 20 22 34 42 45 50 54 55 57 55 58 73 76 69 76 73 60 65 70 76 91 89 71 58 48
5 4 3 1 1 1 1 2 2 2 1 2 2 1 3 1 3 5 3 6 6 11 28 20 7 21 28 23 17 8 4 6 7 8 9 9 7 4 4 11 20 26 34 36 27 21 22 25 31 31 28 27 26 24 17 11 12 13 14 17 20 19 20 20 19 27 38 42 46 51 54 57 60 60 64 62 61 73 72 59 58 64 80 91 87 77 61 48
5 5 3 2 2 1 2 2 2 2 1 2 1 2 3 1 13 24 10 6 9 8 16 13 5 11 15 17 12 4 6 7 10 13 11 11 11 11 9 12 24 33 39 41 32 27 29 28 29 28 25 23 23 23 19 13 11 13 15 15 16 18 18 19 18 22 35 42 43 46 50 55 61 60 58 58 62 70 69 61 54 62 82 83 80 83 64 46
5 5 4 3 2 2 2 2 2 2 1 2 1 3 4 1 17 29 13 7 11 4 6 7 6 8 7 9 6 4 9 11 16 15 10 16 20 22 22 22 34 40 38 39 32 31 34 29 26 25 23 22 22 22 20 15 12 13 18 17 14 16 16 18 18 20 32 41 42 44 48 52 58 60 60 62 63 64 66 61 54 69 89 81 74 79 66 58
4 5 4 3 3 2 2 2 2 2 2 2 2 2 4 4 8 13 8 10 11 4 6 7 7 10 6 6 6 5 9 16 22 16 11 23 32 36 36 32 38 40 34 33 31 32 34 29 24 23 24 24 21 21 19 17 14 14 17 18 16 16 16 17 18 19 26 35 39 40 45 49 51 54 56 60 59 58 64 60 57 77 90 76 68 66 65 73
4 4 4 3 4 3 3 4 3 4 4 4 5 4 5 6 7 9 8 13 17 11 9 9 12 14 9 9 8 5 13 21 26 24 15 21 35 47 51 42 36 35 32 30 27 27 30 29 26 24 25 26 22 20 20 18 16 15 15 15 16 17 17 18 18 20 21 26 33 34 37 42 45 49 51 55 56 58 68 64 58 76 80 64 61 59 59 70
6 6 6 7 7 6 7 6 6 9 9 8 9 10 9 9 10 13 11 15 23 20 13 11 14 13 11 12 10 9 18 21 23 26 16 17 35 49 54 49 39 32 30 29 26 24 25 26 25 24 25 26 22 21 22 20 17 15 13 13 14 14 15 17 17 19 19 21 30 32 31 34 38 44 46 50 55 56 66 68 60 69 71 59 60 63 62 67
12 11 11 12 12 12 10 10 13 14 14 16 16 15 14 14 15 16 16 19 26 24 18 16 15 15 14 13 11 13 16 16 19 22 16 19 34 40 44 45 41 34 27 26 26 24 23 22 21 22 23 24 23 21 22 20 18 15 12 13 14 11 10 13 14 18 19 19 25 29 28 28 32 39 41 44 52 52 55 62 58 64 76 70 62 62 66 66
15 15 16 16 16 17 15 15 17 17 22 24 21 20 19 19 21 19 18 22 26 27 25 23 18 18 18 15 14 13 13 18 20 17 14 18 25 29 32 36 38 36 30 26 25 23 23 21 21 21 20 21 21 20 21 22 19 15 13 13 13 11 8 9 13 17 19 19 22 25 25 24 26 32 37 38 45 49 49 53 56 66 82 75 58 57 62 63
17 18 18 19 19 20 19 20 19 19 29 29 24 24 23 23 23 20 22 24 23 25 26 25 20 18 19 16 14 15 18 24 20 16 17 17 19 23 25 28 33 35 34 31 27 24 23 22 21 21 20 20 19 19 21 22 19 13 12 12 12 12 8 8 13 17 20 21 21 22 22 23 23 25 31 34 39 44 47 52 58 67 75 66 54 55 57 59
18 19 20 20 21 22 23 24 22 22 27 28 27 26 25 26 23 22 30 28 22 24 25 24 22 19 19 16 15 18 23 25 22 24 23 14 15 22 23 24 27 28 31 34 31 27 25 23 20 19 20 20 18 20 21 19 17 14 12 12 12 13 11 8 11 17 21 21 20 21 20 21 23 22 24 30 34 37 42 51 57 61 68 69 64 61 57 57
20 20 22 23 24 26 26 26 26 27 27 28 30 29 28 27 23 26 35 29 23 25 23 22 22 20 21 20 19 19 20 21 22 26 23 16 18 22 24 27 26 25 28 30 31 30 27 25 21 18 20 22 20 20 19 16 15 15 13 14 15 16 14 11 9 12 16 18 19 19 19 20 21 20 21 26 30 32 36 44 51 56 66 76 70 60 57 57
23 25 27 29 30 30 31 31 31 31 32 32 33 33 30 26 28 34 34 27 24 24 23 23 23 22 22 21 22 21 20 20 20 21 21 23 23 18 22 28 26 26 27 25 27 29 29 27 24 21 19 22 22 18 17 16 15 16 15 15 17 18 18 15 11 9 10 13 14 15 17 19 18 19 22 25 27 30 34 38 43 52 65 75 69 59 59 58
28 32 33 35 36 36 37 39 37 35 36 37 37 36 32 31 36 36 28 25 24 23 24 25 24 24 23 21 20 21 21 21 22 19 19 25 25 19 21 24 21 20 21 21 23 25 28 28 27 27 23 22 24 20 17 18 17 17 17 16 16 17 18 17 14 12 12 11 11 11 13 16 18 19 22 24 25 27 31 35 38 47 59 64 59 56 57 55
34 36 38 40 40 40 41 42 42 39 38 40 38 37 39 40 36 29 23 23 23 23 24 26 25 25 24 22 21 22 21 21 22 22 22 25 26 25 25 24 25 23 17 16 17 18 23 25 25 29 30 26 25 22 18 19 20 19 18 17 16 16 18 19 16 14 13 11 10 10 11 13 16 19 21 22 23 24 28 33 37 42 52 57 54 51 48 50
38 39 40 42 41 42 42 42 43 42 41 42 40 41 46 42 31 26 23 21 22 25 26 25 25 26 24 21 22 23 21 20 21 22 23 24 23 27 29 29 30 30 24 18 16 15 17 20 22 25 30 31 27 24 20 19 21 21 19 19 18 16 20 21 19 16 15 12 10 9 11 13 14 16 20 21 22 22 23 29 34 35 42 53 57 54 47 51
42 43 44 44 44 43 43 44 45 44 43 43 44 49 49 37 28 27 25 24 26 28 27 27 26 26 25 22 23 23 19 21 23 19 19 22 21 23 30 35 32 28 27 24 19 17 15 17 19 19 24 30 30 26 21 19 21 22 20 20 18 17 19 19 18 16 15 13 11 10 10 12 13 13 17 19 21 23 22 24 30 30 36 47 54 61 58 55
45 46 47 48 46 45 45 44 44 45 45 44 48 51 44 34 28 27 27 29 29 28 27 28 26 23 22 24 26 24 19 21 23 20 17 20 21 20 27 41 40 30 28 26 22 21 17 15 17 18 19 26 30 28 24 20 20 21 21 20 19 18 17 16 16 16 16 14 12 12 11 10 11 12 14 16 19 23 24 24 28 29 31 38 47 61 65 56
47 49 50 50 49 48 47 44 43 42 41 46 53 48 38 36 35 33 35 34 30 29 27 25 24 22 19 22 27 28 24 21 21 21 16 17 23 27 34 46 46 36 32 32 30 27 22 16 16 20 19 20 25 27 26 23 18 19 21 20 20 19 18 16 16 16 18 17 15 13 13 12 12 12 13 15 16 19 22 24 29 31 30 33 39 51 58 56
49 50 52 54 54 52 48 46 42 35 37 49 54 44 38 42 42 41 41 37 33 31 26 21 22 23 20 20 22 26 28 23 20 21 18 17 25 32 40 47 45 37 32 31 32 33 31 26 21 22 22 19 21 24 27 25 20 18 18 19 19 18 19 17 16 17 19 21 18 14 14 14 14 13 12 16 17 17 20 22 26 29 29 32 37 43 50 53
47 51 58 60 57 53 50 47 39 34 45 55 49 42 43 46 46 46 42 36 32 29 24 21 23 27 25 21 21 26 29 24 22 24 21 18 27 36 42 46 46 41 32 26 29 34 36 32 24 23 26 24 22 23 25 24 23 20 17 18 19 17 18 18 17 19 19 20 19 15 15 15 15 16 14 15 17 16 18 21 22 26 29 31 33 36 43 48
54 65 73 68 59 54 50 46 42 45 56 54 41 38 45 48 49 47 39 35 33 29 27 27 27 29 27 23 25 29 30 26 24 25 22 19 30 42 45 45 47 47 40 32 32 34 35 33 26 23 24 24 22 23 25 24 24 23 19 19 20 17 17 18 18 18 19 19 18 15 15 14 14 17 16 14 16 16 17 18 20 23 25 28 28 29 37 44
62 73 74 67 58 51 47 47 50 54 54 48 43 44 48 50 51 48 39 37 37 34 33 34 32 31 29 28 28 28 30 32 28 26 24 23 29 40 46 47 45 45 43 37 35 35 35 35 30 25 22 20 20 22 25 24 22 22 20 20 23 22 18 18 17 18 18 18 19 18 16 15 13 14 15 14 14 16 16 16 19 21 20 23 24 24 31 39
66 75 72 65 53 46 50 52 51 48 44 46 53 56 55 51 51 53 47 40 40 40 37 37 36 34 34 31 28 27 31 33 29 26 26 24 25 34 48 52 46 44 42 36 34 35 34 34 31 27 23 19 18 19 22 24 22 21 22 21 22 24 22 19 18 18 18 17 18 20 18 15 13 13 12 13 13 15 17 15 16 19 17 17 21 24 28 32
70 75 65 54 44 46 55 53 49 50 47 49 56 57 53 48 48 52 51 46 45 45 42 39 38 37 37 35 31 32 34 33 30 29 26 24 25 32 47 55 48 44 41 33 32 37 38 40 38 34 31 25 23 23 23 25 24 20 21 23 21 22 22 22 20 18 18 18 17 20 18 15 15 16 15 15 13 13 15 15 14 15 14 14 17 23 27 31
83 80 60 42 35 49 60 49 48 56 54 53 57 55 51 53 52 49 50 51 48 45 43 41 41 45 46 45 42 40 41 42 39 35 30 28 32 38 48 52 43 40 40 34 36 44 45 47 48 42 38 35 32 32 30 30 28 21 21 25 23 19 19 23 23 19 18 18 18 20 19 17 17 20 18 16 14 14 15 16 15 15 15 14 14 19 26 31
90 82 64 45 33 49 61 49 48 57 55 55 57 54 55 59 58 53 54 58 54 49 48 46 48 54 54 54 55 51 52 54 47 42 40 37 41 46 51 53 43 38 43 42 48 58 51 46 47 40 34 33 31 29 28 28 28 24 22 25 25 22 19 19 22 22 20 22 23 21 18 16 18 22 21 18 16 14 13 14 14 14 17 17 17 19 24 30
82 76 67 56 42 46 53 49 53 58 58 59 57 54 55 58 60 60 58 62 63 58 55 54 56 62 64 65 67 64 63 62 57 55 57 54 53 51 54 59 52 43 46 48 52 62 58 51 51 44 35 29 26 29 33 34 34 30 24 23 25 26 22 18 20 22 24 28 29 25 20 18 17 18 22 22 19 16 15 16 16 15 16 17 18 21 24 29
76 72 65 69 64 56 53 54 59 57 55 58 58 56 55 54 59 62 59 65 71 65 60 63 68 73 76 75 73 70 67 64 63 64 66 64 61 58 58 62 59 52 50 43 36 45 54 54 56 56 50 41 39 49 55 53 50 42 33 28 24 23 24 23 23 22 22 29 31 28 27 27 23 19 21 24 24 20 16 16 16 16 17 18 20 24 28 31
79 69 56 67 73 66 61 63 65 62 60 60 60 61 58 55 61 64 61 66 73 69 67 73 76 77 78 77 75 72 68 67 68 69 69 65 63 64 64 64 61 56 49 37 31 40 48 47 47 52 55 54 54 59 59 56 52 46 42 37 30 28 28 26 28 28 27 28 30 28 30 33 32 25 23 27 27 21 17 20 21 19 19 21 23 27 33 36
72 60 43 54 68 67 68 72 70 71 73 69 66 66 62 60 65 67 65 65 69 74 78 80 81 81 80 82 81 75 71 72 72 73 73 69 65 65 65 65 61 56 52 48 47 49 48 45 42 40 43 46 47 47 46 47 47 44 44 43 40 40 36 28 28 33 34 32 31 31 32 34 33 29 30 34 34 33 35 35 32 27 26 31 33 30 29 30
45 44 39 57 78 80 82 84 74 70 77 78 73 70 68 66 68 70 69 67 69 76 78 79 85 86 81 83 87 84 81 79 76 77 78 75 72 69 65 62 60 58 59 57 51 48 47 46 43 38 38 39 38 37 38 38 40 41 43 44 43 43 41 36 32 33 35 34 34 35 35 35 34 33 36 39 41 48 52 42 36 39 42 45 43 35 29 25
30 32 39 67 93 94 91 90 76 67 74 80 75 73 73 72 73 74 71 68 72 79 79 80 86 87 82 84 88 88 85 83 81 82 82 78 75 71 64 60 59 59 61 59 54 51 49 47 44 40 38 37 35 35 36 36 39 40 41 42 42 41 41 39 36 35 36 35 35 36 34 34 38 39 41 43 41 45 51 46 43 49 56 59 56 49 45 42
31 28 34 66 93 92 87 87 78 68 70 78 82 83 83 80 77 79 76 68 70 76 80 83 85 85 85 86 86 86 86 84 82 80 78 75 73 69 65 65 64 62 63 65 62 58 53 49 44 37 33 33 35 35 35 36 36 36 39 40 40 40 39 37 38 38 37 36 35 34 34 36 40 41 44 47 42 41 53 60 57 57 65 67 62 57 58 61
34 29 33 64 86 84 82 81 74 68 72 84 91 91 89 85 80 85 86 73 65 69 77 81 80 79 83 87 87 86 83 81 78 74 72 72 71 69 68 68 67 64 64 66 66 65 62 57 48 37 31 30 33 33 33 33 32 30 33 37 39 39 37 36 38 37 37 37 35 34 35 35 36 42 49 52 47 45 56 65 62 60 60 58 56 57 58 59
Wind_Speed
10 10 10 10 10 10 9 9 9 10 10 10 10 10 10 10 10 10 9 9 10 10 9 10 10 10 10 10 10 10 11 12 12 12 14 14 13 12 16 18 18 17 17 17 18 19 20 21 21 20 18 14 14 11 11 14 10 9 10 11 12 8 3 3 7 4 0 7 9 11 11 10 12 13 14 15 12 11 10 8 10 11 8 11 14 18 20 21
9 9 9 9 9 9 9 9 9 9 9 9 9 9 9 9 10 10 9 9 9 10 9 9 10 10 11 10 11 10 11 12 13 14 15 13 12 12 13 16 18 18 17 16 15 15 16 18 19 19 17 14 14 11 11 14 12 10 10 10 11 8 3 4 4 5 4 7 10 12 11 10 11 10 12 12 11 11 10 9 10 11 10 13 16 19 21 20
9 10 9 9 9 10 9 9 8 8 9 9 9 9 8 9 9 9 9 8 9 9 9 9 9 10 11 11 11 11 11 11 14 15 14 13 12 11 10 13 17 17 17 15 13 13 13 14 17 17 16 14 13 11 10 13 14 11 10 11 9 7 4 2 3 4 4 4 8 10 11 11 9 8 11 11 11 12 11 11 10 11 11 12 14 18 21 20
10 10 11 10 10 10 10 10 9 9 9 9 9 8 8 8 8 8 8 8 9 9 9 8 8 9 10 11 11 12 11 11 16 15 12 14 13 11 10 11 14 17 17 16 15 14 14 16 17 16 14 14 14 13 12 13 13 11 11 11 6 6 6 1 2 2 2 2 6 9 11 11 8 8 10 11 12 12 12 12 10 11 11 10 11 17 21 20
12 11 11 11 11 11 11 11 10 10 10 9 9 9 9 8 8 8 8 9 8 9 9 8 8 8 9 11 10 12 9 7 16 14 13 16 14 12 11 11 13 16 18 19 18 17 16 17 18 18 17 15 14 15 15 15 13 11 13 12 9 9 7 2 2 2 4 3 6 8 8 7 9 9 8 11 12 11 12 12 12 13 12 11 11 15 20 21
12 12 12 12 12 11 11 11 11 10 10 10 10 10 10 10 9 9 9 10 9 9 9 8 8 7 8 9 9 12 9 9 15 12 13 16 14 12 11 12 13 15 19 20 19 18 18 17 19 20 19 16 16 16 16 14 14 14 13 12 10 12 9 2 2 3 3 3 5 7 6 5 8 10 10 12 11 10 12 12 14 14 12 12 12 13 19 22
12 12 12 12 12 12 12 11 11 10 11 11 11 11 11 11 11 11 10 10 10 9 9 9 8 7 7 7 9 10 12 17 16 10 12 14 14 13 13 14 13 14 18 20 21 20 19 19 19 19 18 17 16 16 15 13 15 17 14 11 9 9 9 4 4 5 2 3 5 6 8 8 9 10 9 11 7 6 10 12 14 14 12 13 14 14 16 20
13 13 13 13 13 13 12 12 11 11 11 11 11 11 10 11 11 11 11 10 11 10 10 9 8 8 7 7 8 7 13 19 16 13 13 12 13 14 15 16 14 14 15 18 20 20 19 18 17 17 18 17 15 14 14 14 16 19 17 12 10 9 9 9 8 7 4 3 5 6 8 9 9 7 8 10 7 8 11 14 13 13 13 13 14 15 15 18
13 13 13 13 13 13 13 13 12 11 11 11 11 10 10 10 10 11 11 11 10 10 10 9 9 8 7 7 6 6 13 17 15 17 16 13 12 13 15 16 15 14 14 17 19 20 20 18 16 15 15 16 15 14 14 15 15 16 18 15 13 11 9 10 9 8 6 4 5 6 6 7 7 7 7 9 9 11 13 15 13 12 14 13 14 16 17 19
14 13 13 13 13 13 13 13 12 11 11 11 11 10 10 10 9 10 10 10 10 9 9 9 9 8 7 8 5 5 14 15 15 18 17 15 13 12 15 16 17 16 15 17 20 22 21 18 15 14 13 14 15 16 16 17 13 9 12 14 15 14 12 11 11 11 8 6 7 6 6 8 8 8 9 10 11 12 13 13 11 12 16 15 14 16 18 20
16 14 14 14 13 13 13 13 12 12 11 11 11 10 10 10 9 9 8 9 9 9 9 9 9 7 7 8 6 9 14 14 14 17 17 17 16 13 14 15 18 18 17 17 20 22 21 17 14 13 14 15 15 16 18 20 17 12 11 13 15 15 15 14 15 13 10 12 11 7 7 8 9 11 11 12 14 14 14 13 10 13 16 15 15 15 18 21
17 16 14 14 14 13 13 13 13 12 12 12 11 11 11 10 10 9 8 7 7 7 8 8 8 8 8 9 10 12 13 13 14 15 16 18 18 16 14 14 16 19 19 17 18 21 21 18 15 15 13 13 13 13 16 19 19 17 15 15 15 15 17 18 18 15 14 18 14 9 10 10 10 12 10 10 13 15 15 14 12 13 16 17 17 16 17 21
17 16 14 14 13 13 13 13 13 13 12 12 12 11 11 11 10 9 8 7 6 6 7 8 9 9 9 9 11 11 12 13 13 14 16 18 19 19 17 16 15 17 20 18 17 19 22 19 16 18 14 11 10 10 15 15 16 19 18 17 16 16 19 18 18 18 18 19 14 12 14 13 11 11 11 11 13 16 15 14 13 14 16 17 19 18 18 22
17 16 15 14 13 12 12 12 13 13 13 13 13 12 11 11 10 10 9 7 6 5 6 7 8 9 10 11 11 10 11 12 12 13 14 17 19 20 19 19 17 16 19 20 19 19 22 21 17 19 19 16 12 11 14 13 14 18 18 19 18 18 19 17 19 19 20 19 15 15 16 14 12 10 13 13 13 17 16 14 15 16 17 17 20 20 19 22
17 16 16 15 14 13 12 12 12 13 13 12 12 12 11 10 10 10 9 7 6 5 5 5 6 8 9 10 11 9 10 11 11 12 13 15 18 20 20 20 19 17 18 21 23 22 21 20 20 20 18 19 17 13 13 13 15 17 18 20 20 20 18 15 18 20 20 18 17 18 16 14 13 11 15 17 16 18 17 15 16 17 19 19 20 20 20 22
18 17 17 17 16 15 13 12 12 12 13 12 12 12 10 10 10 9 9 7 6 5 5 4 5 5 3 5 10 8 7 8 9 11 12 14 16 19 20 20 20 19 19 19 23 25 24 23 23 21 17 17 19 16 13 15 18 18 20 21 19 21 20 16 17 19 21 19 19 21 16 13 14 13 16 20 19 18 18 18 17 17 21 23 22 19 19 22
19 18 18 17 17 15 13 12 11 12 12 12 12 11 10 10 9 9 7 6 5 4 4 4 4 3 2 7 9 7 6 6 7 9 11 13 15 19 20 19 19 19 19 20 23 26 27 28 25 20 18 18 19 17 16 19 21 20 22 23 21 20 21 19 16 17 20 21 20 21 18 15 16 16 17 18 18 17 18 18 18 18 20 23 22 19 19 22
19 17 17 17 16 15 13 12 12 12 12 12 12 11 10 9 9 9 6 5 4 4 5 4 1 2 4 7 6 6 8 8 7 8 9 11 13 16 18 18 18 19 20 21 23 25 26 27 23 19 19 21 21 21 23 22 20 20 21 23 23 21 21 22 18 17 19 22 23 21 20 18 16 15 17 18 19 18 18 19 19 19 21 23 22 19 20 22
19 17 16 16 16 15 13 13 12 12 13 13 12 11 10 10 10 9 5 4 4 4 3 3 3 3 8 11 10 10 10 10 8 7 7 9 11 14 16 17 17 18 19 20 21 23 23 23 22 22 24 25 26 26 26 22 17 18 20 22 23 22 22 22 20 17 17 21 24 23 21 18 16 18 18 18 19 20 20 20 20 21 23 23 21 20 19 20
18 17 15 15 15 15 14 14 13 13 14 13 13 11 10 10 8 6 6 6 6 4 5 7 8 9 12 15 15 11 9 9 7 5 6 7 9 11 13 15 15 16 19 19 19 21 22 23 26 28 27 25 26 25 23 22 17 15 18 21 23 24 23 21 19 17 16 18 23 24 23 19 18 21 20 16 18 22 21 20 22 23 24 22 20 21 19 18
16 16 15 14 14 15 14 14 14 14 14 14 14 10 9 9 4 6 10 9 9 8 8 10 10 11 13 15 14 11 8 6 5 6 5 5 7 9 12 14 15 18 20 18 17 19 22 26 29 29 26 21 21 23 22 22 20 17 16 18 20 23 24 21 19 18 17 18 20 22 23 22 20 19 19 19 20 22 22 21 23 25 25 21 19 20 19 18
14 14 15 14 15 15 15 14 14 14 14 14 14 11 10 10 7 9 11 9 11 11 9 10 8 11 13 12 12 11 5 1 5 7 4 5 6 10 11 12 17 18 19 19 18 20 25 29 29 25 23 21 19 20 21 22 21 20 18 18 18 18 20 20 18 18 19 20 19 20 22 23 22 19 20 24 24 22 22 21 22 25 25 21 20 21 20 21
13 13 14 15 15 15 15 14 14 13 13 12 13 12 12 12 11 11 10 8 11 13 10 9 8 10 11 10 10 9 2 2 4 8 6 6 8 12 11 12 17 17 18 23 22 23 25 27 27 23 20 22 21 18 19 21 23 22 20 20 20 17 16 18 18 18 20 20 17 18 21 23 22 21 22 25 23 20 20 20 21 25 24 20 21 22 21 22
13 13 14 15 15 15 15 14 13 12 11 11 12 12 12 13 11 11 10 8 8 12 12 9 9 10 10 8 8 6 4 7 8 7 7 7 5 11 14 12 16 18 20 24 24 24 23 19 21 24 22 20 22 20 19 20 23 24 23 22 21 19 17 18 18 18 21 22 19 17 19 22 23 22 22 23 24 23 22 23 23 24 23 21 20 22 22 21
14 14 14 14 15 15 15 13 11 11 11 11 11 12 12 12 11 10 9 7 6 11 9 7 7 8 8 7 7 7 6 8 9 10 10 9 7 12 13 13 17 19 19 22 24 25 24 18 15 21 25 23 22 22 22 20 20 22 24 24 23 21 19 18 18 18 20 23 22 21 19 19 22 24 23 23 26 27 25 26 26 25 27 25 21 23 23 21
15 15 14 14 14 15 16 13 11 11 10 11 11 12 12 10 9 7 6 6 8 11 6 3 3 5 5 4 6 6 3 7 9 11 10 9 10 11 12 12 16 18 17 19 23 25 24 21 16 17 23 24 23 23 22 21 20 20 19 21 23 23 22 19 19 20 21 19 19 22 20 17 20 25 26 25 25 26 26 25 24 26 30 28 23 24 23 21
17 16 16 15 14 14 15 14 13 11 9 11 12 12 10 8 7 4 4 7 9 9 7 5 4 4 4 4 7 4 3 8 8 8 9 9 8 10 12 12 13 16 15 15 21 24 23 23 21 18 20 23 25 25 22 21 22 20 15 13 17 21 24 22 20 19 21 20 19 22 23 21 21 22 24 27 27 26 27 25 22 27 31 28 25 24 22 21
18 18 17 16 15 14 14 13 13 11 9 10 11 10 8 6 4 0 2 6 4 7 7 7 7 7 6 4 8 4 8 11 6 8 10 9 7 9 10 11 12 14 15 17 21 19 19 24 26 21 20 24 26 24 22 21 22 21 15 11 12 15 20 23 23 20 19 20 22 24 24 20 20 22 22 24 29 29 29 28 26 29 31 29 26 24 22 22
18 18 17 17 16 15 15 14 12 11 10 9 9 7 5 2 0 1 5 6 1 4 6 4 6 7 4 4 5 5 7 9 7 10 9 6 7 8 10 11 12 13 14 19 22 18 16 20 25 24 21 23 24 21 20 22 23 21 16 13 11 11 14 19 23 24 21 21 23 25 25 19 17 21 21 21 27 30 30 30 29 28 29 30 29 25 23 24
18 18 17 17 17 16 16 16 13 11 10 9 7 4 2 1 2 5 8 4 3 5 6 2 3 3 0 3 6 5 5 7 9 11 8 6 10 9 9 12 12 12 14 17 21 22 19 16 19 26 25 21 21 20 19 21 20 19 18 16 13 13 14 15 19 23 20 19 24 27 27 23 17 18 22 23 25 27 28 30 29 27 28 31 29 25 24 25
19 18 17 17 17 16 16 15 15 13 9 8 5 2 2 2 4 9 7 2 3 3 3 2 2 2 1 3 6 3 2 5 6 8 7 7 10 9 8 10 11 13 15 17 20 22 24 21 18 22 24 21 20 21 20 19 19 18 18 17 16 15 15 15 18 20 14 14 22 27 28 27 21 20 21 20 23 25 25 27 28 27 29 32 31 26 27 26
20 19 18 17 15 15 14 12 14 13 9 6 3 3 1 4 9 10 5 3 4 2 3 1 2 1 1 3 6 4 3 5 3 5 7 7 8 9 9 9 8 11 15 17 18 19 24 27 23 19 20 22 22 22 22 21 21 21 19 19 17 13 13 13 13 15 14 16 20 22 25 28 27 27 24 19 19 23 24 25 26 27 29 32 32 29 29 27
20 19 17 16 14 13 12 11 11 10 7 4 0 3 2 8 8 6 2 1 2 3 3 3 1 2 4 5 6 4 5 7 4 4 7 8 8 9 10 9 9 10 11 12 14 18 20 25 27 24 20 23 25 24 24 23 23 24 23 22 18 11 9 10 10 10 13 18 21 22 22 24 27 28 28 25 21 20 23 24 24 25 28 29 28 28 28 26
19 17 15 14 12 10 9 9 7 6 4 1 2 2 7 10 7 5 3 2 3 2 2 4 5 6 7 5 5 5 6 7 6 5 6 8 10 11 10 8 11 13 11 12 13 15 16 17 25 30 25 22 27 28 25 22 21 24 24 23 22 18 12 9 9 10 12 14 19 23 21 20 23 23 24 27 26 22 21 22 23 25 26 26 25 26 25 25
18 16 14 12 9 7 7 6 4 3 1 3 3 5 9 9 5 3 1 3 4 4 4 7 8 7 8 6 3 5 6 5 3 3 7 9 9 11 9 2 4 9 9 11 12 13 16 15 16 26 28 24 26 28 26 23 22 22 24 25 26 24 20 15 12 14 16 14 15 21 22 22 21 19 19 22 26 28 24 20 20 22 25 26 26 27 26 26
18 16 12 9 7 7 7 5 5 2 3 5 4 8 5 3 3 4 1 1 4 5 6 9 7 7 8 6 1 2 4 6 6 5 8 10 8 8 7 3 4 6 6 9 10 10 14 17 11 14 23 24 25 26 27 28 25 20 24 29 27 23 22 21 17 17 17 13 11 17 21 22 20 19 20 21 22 28 29 25 22 20 23 25 25 27 27 26
16 14 9 7 8 8 8 6 5 2 5 6 6 7 3 2 4 4 5 7 6 6 8 8 5 5 6 5 3 2 1 6 7 6 7 8 8 6 4 7 11 11 10 11 10 8 9 15 12 10 17 22 22 23 25 29 29 25 24 24 24 23 24 23 16 13 13 10 9 16 18 18 19 17 18 21 22 24 28 30 27 23 22 24 24 25 25 26
15 11 6 7 10 8 8 5 3 5 7 4 8 7 3 4 4 5 8 8 5 5 6 7 4 3 6 7 5 2 3 5 3 3 6 6 7 7 4 5 9 10 13 14 13 9 9 14 13 10 14 18 19 22 24 27 31 33 27 20 21 24 23 23 18 11 11 9 8 14 17 17 18 16 17 22 25 25 25 28 30 29 27 26 25 24 25 26
13 9 5 9 13 10 6 3 7 9 4 4 6 4 2 3 4 4 5 4 2 4 4 6 5 3 4 6 7 6 5 5 5 5 7 6 5 5 5 6 6 7 10 12 12 12 11 14 15 11 11 15 19 23 25 25 28 33 32 25 23 24 23 24 22 16 12 9 7 12 14 15 18 16 16 19 23 26 27 26 28 31 30 29 28 26 26 27
12 10 5 14 15 8 3 8 9 7 1 5 1 2 3 0 4 4 2 0 1 4 4 4 5 5 5 6 7 7 4 5 8 7 7 6 5 4 4 7 10 8 10 10 11 12 11 13 18 16 13 16 21 23 25 26 26 29 33 30 25 24 24 24 24 24 19 10 7 8 9 14 19 20 18 16 16 20 26 27 27 28 28 28 28 29 28 28
12 8 9 15 13 4 6 9 6 3 2 3 2 1 4 3 2 5 4 2 1 3 4 4 5 6 8 8 6 8 8 9 11 11 11 10 9 8 5 7 11 11 10 10 10 11 12 14 18 20 17 19 22 21 22 25 27 28 30 31 29 26 25 21 18 24 26 19 12 9 9 11 13 17 21 20 15 14 19 26 27 26 26 25 25 27 29 28
7 3 10 10 6 6 11 6 0 3 2 4 3 2 2 2 1 3 4 3 2 2 3 4 5 5 7 8 9 10 12 13 13 13 13 12 9 7 5 6 9 9 9 10 9 11 14 14 15 19 20 20 19 18 20 22 26 30 29 29 31 30 29 23 17 21 26 23 19 15 13 11 6 8 13 17 18 14 13 19 23 24 25 26 25 25 27 28
6 4 4 4 6 12 12 4 2 4 3 5 3 1 2 2 1 3 3 2 1 3 4 4 6 6 4 5 7 9 11 12 13 13 13 12 10 10 9 10 9 7 7 9 9 11 16 14 13 17 20 23 21 19 21 20 21 28 30 29 30 33 34 29 22 24 25 23 22 17 14 13 7 9 8 11 15 15 12 15 17 17 19 23 25 25 25 27
8 7 6 7 8 13 9 4 4 4 4 4 3 1 2 2 2 1 2 3 2 3 5 5 6 7 6 6 9 10 11 11 11 12 12 11 11 13 13 13 12 5 5 9 9 9 13 14 14 15 13 17 20 18 21 23 21 25 30 30 30 31 35 34 29 27 24 22 22 17 15 19 13 11 9 9 10 11 12 13 15 15 15 17 21 24 25 25
12 12 8 10 9 12 10 7 6 3 4 5 4 3 2 4 3 2 2 2 3 1 4 6 6 7 9 9 10 10 10 11 11 10 11 10 11 11 9 10 10 6 7 13 14 11 10 11 15 15 11 11 12 10 12 15 16 20 26 30 33 31 32 35 35 31 24 20 24 20 17 24 23 14 11 10 8 8 8 9 11 13 14 15 16 19 23 26
8 6 3 5 10 10 8 9 8 4 3 3 2 3 2 3 6 3 2 0 3 1 2 6 5 5 6 6 8 8 8 10 11 9 9 10 11 10 8 8 8 8 12 16 15 12 11 13 16 18 18 19 13 8 7 9 11 14 18 24 31 34 33 33 33 34 29 21 24 26 17 14 20 20 18 15 13 13 11 9 10 11 13 16 15 15 17 21
4 2 3 3 4 8 8 7 7 4 3 2 1 0 1 1 3 5 2 1 2 1 3 5 2 2 4 5 6 7 7 8 10 12 12 11 10 10 11 11 10 11 16 14 10 10 12 15 18 20 23 26 24 21 17 16 16 16 17 19 21 26 32 36 33 30 28 23 22 26 22 17 17 15 16 15 13 14 12 10 9 10 11 12 13 16 16 15
5 2 4 6 3 4 4 6 7 6 4 3 2 2 1 2 2 3 3 2 3 3 3 3 2 2 4 6 6 7 7 9 11 15 14 10 9 10 12 12 11 13 16 12 8 11 14 16 18 20 23 25 26 26 24 21 21 20 20 21 21 20 23 31 35 29 27 27 25 24 24 24 21 13 10 12 13 9 5 6 8 8 10 9 7 12 14 11
8 5 4 4 2 3 4 5 6 5 4 5 4 3 1 1 2 3 3 3 4 6 3 2 3 4 5 6 7 7 8 9 11 12 10 8 9 11 12 13 11 11 14 13 12 13 15 18 17 18 21 22 22 24 23 23 24 23 23 23 23 22 19 21 29 30 30 32 29 25 24 26 26 18 9 9 13 7 3 5 8 6 7 8 5 6 10 10
11 8 6 5 4 4 4 5 5 5 4 5 4 2 1 1 3 3 3 4 5 7 5 3 5 7 6 7 7 8 9 10 12 12 10 11 13 12 12 13 11 10 11 13 14 14 15 17 15 15 19 20 20 21 22 23 25 26 26 25 25 25 21 20 23 26 29 32 32 31 28 28 30 26 17 16 16 11 3 1 4 4 5 6 5 3 5 9
13 10 8 7 5 4 5 4 4 5 3 2 2 1 2 1 3 4 3 5 6 7 6 5 6 7 7 7 8 9 10 11 13 15 14 15 17 15 14 14 12 12 12 12 13 14 15 16 15 16 19 19 18 18 20 23 26 29 30 28 26 25 26 26 24 24 26 30 33 34 33 31 30 27 23 24 23 18 10 6 5 8 9 11 12 5 5 8
14 11 8 8 6 5 6 4 4 3 0 1 1 0 2 2 3 4 3 4 4 5 5 6 7 8 7 8 10 10 11 13 15 16 17 18 20 19 19 19 17 16 16 15 14 14 15 17 16 17 20 21 17 17 18 19 21 26 31 30 27 27 28 29 30 27 25 26 31 34 34 32 29 26 28 31 28 24 19 14 12 13 11 11 13 12 12 10
Wind_Direction
332 330 329 328 327 326 325 324 319 313 307 302 299 296 295 294 293 293 295 296 293 286 280 272 265 259 251 245 242 235 230 228 225 227 226 230 234 228 224 224 224 220 215 214 214 214 218 220 222 222 217 216 215 211 232 241 237 242 253 256 272 286 250 31 33 10 137 158 160 154 144 142 151 155 160 153 141 158 157 137 153 147 140 162 162 161 161 164
336 332 330 329 328 327 329 331 328 325 316 309 304 298 296 293 291 291 290 293 291 288 284 277 270 263 254 246 242 239 237 233 229 228 229 232 234 233 228 225 224 223 221 218 218 218 220 225 228 230 227 224 226 220 223 242 248 243 247 253 274 291 295 10 18 359 29 134 144 144 145 145 156 157 150 145 147 158 144 133 151 148 148 159 159 162 163 166
339 335 333 331 330 328 327 329 330 330 324 319 312 305 299 292 292 291 290 290 286 288 285 280 275 267 260 249 242 241 240 241 239 231 230 234 234 236 233 227 224 221 222 218 215 216 216 222 227 232 233 229 234 233 221 235 250 253 252 251 272 297 293 8 34 10 26 116 138 152 162 162 169 155 140 144 156 162 152 151 161 157 154 162 167 171 168 165
338 336 333 332 332 331 329 328 328 327 323 319 315 310 303 295 293 292 291 287 283 285 282 282 276 268 264 254 244 240 242 254 251 234 226 233 232 233 231 228 223 217 218 214 208 209 210 214 216 219 224 226 231 231 220 225 241 257 262 256 268 301 281 246 58 52 70 127 153 165 167 164 167 155 146 153 163 169 163 157 165 168 165 175 177 174 173 167
335 333 331 330 330 330 329 329 328 327 321 316 312 306 301 298 295 292 290 287 285 284 281 281 276 271 265 256 247 241 236 252 251 234 225 232 228 225 226 225 222 214 213 213 209 207 208 212 212 209 209 216 226 230 227 226 234 251 266 271 273 289 290 232 196 149 93 111 156 164 169 160 159 166 168 170 177 182 174 165 168 174 174 178 178 176 176 171
334 331 331 329 328 328 327 327 327 326 321 316 312 306 302 299 296 291 286 287 287 285 282 280 276 273 266 258 248 238 215 225 246 238 228 230 224 219 219 221 219 212 211 210 210 209 208 209 212 210 208 214 222 229 235 233 234 242 256 269 267 274 286 305 236 225 98 115 161 166 181 168 167 179 182 185 191 186 173 167 171 179 182 176 173 176 176 172
334 332 331 329 328 327 324 325 325 325 322 319 315 310 308 302 296 291 288 288 286 285 284 281 279 273 269 259 247 235 217 231 245 244 236 231 223 217 213 218 218 213 212 209 208 210 209 209 213 212 211 218 223 229 238 238 236 239 245 254 257 264 267 261 249 238 156 152 173 169 182 180 181 185 191 196 184 139 143 152 167 176 178 178 173 170 174 174
336 335 333 332 330 326 324 323 323 323 322 321 319 316 313 305 298 295 291 289 285 287 285 282 280 271 273 264 251 240 226 235 244 243 243 239 227 218 214 217 218 214 212 210 209 211 211 211 215 213 215 223 227 233 236 237 239 240 241 248 259 263 259 249 245 239 226 214 198 179 182 185 185 181 196 199 158 121 137 154 170 171 170 179 175 166 168 174
337 337 337 336 332 328 324 320 319 320 319 321 320 318 315 308 304 300 295 292 287 287 285 281 278 271 274 265 257 248 237 240 244 241 242 241 232 219 216 216 216 214 208 206 206 208 208 210 216 210 215 228 233 238 236 235 242 246 241 244 255 260 259 251 248 242 231 236 228 200 190 195 200 192 202 205 166 140 151 166 178 171 169 176 175 167 165 173
336 337 339 339 337 334 328 322 318 315 315 317 319 319 318 314 312 307 300 295 288 287 285 280 277 273 272 266 254 245 246 245 242 239 236 236 233 220 217 216 213 211 204 203 203 204 203 205 214 211 219 235 238 239 235 231 237 250 247 246 251 252 252 246 242 237 224 236 232 212 213 202 207 210 198 201 181 157 159 175 181 171 170 175 176 170 167 172
334 336 337 337 339 337 332 325 318 314 313 313 316 319 319 319 320 316 308 298 290 287 283 281 283 277 273 263 242 241 248 246 242 239 233 231 230 221 218 217 213 208 201 201 202 203 200 198 208 213 227 237 236 241 240 235 238 248 256 258 256 251 249 243 241 234 218 229 217 199 236 211 210 221 198 197 193 179 179 180 174 168 172 173 176 175 168 169
332 334 333 333 334 334 332 325 318 315 312 311 314 316 320 324 325 322 313 304 292 286 284 286 287 285 281 265 248 249 252 247 244 241 233 228 227 222 217 215 214 208 201 197 200 203 197 196 207 207 221 237 231 241 247 240 240 245 252 260 260 255 249 241 239 234 226 234 216 197 235 230 229 231 213 208 191 182 187 181 172 168 171 170 174 181 172 166
331 332 331 329 328 330 329 323 319 316 314 313 313 314 320 324 328 326 317 309 297 287 285 288 293 294 289 272 258 256 255 249 246 242 235 229 225 222 216 214 215 211 204 195 197 206 197 194 209 210 216 234 224 238 246 237 237 240 245 252 255 255 251 240 234 228 228 238 223 205 230 232 225 221 224 223 189 186 191 181 177 172 172 173 175 183 179 169
329 331 332 330 327 326 327 324 320 318 317 315 312 314 318 323 330 329 322 312 299 293 287 291 296 296 290 277 268 262 257 253 247 243 238 230 225 222 217 216 218 216 211 198 193 204 201 197 208 214 222 226 222 252 254 236 234 236 239 245 246 249 250 239 229 221 224 235 221 211 230 235 220 210 225 222 193 198 199 187 187 179 175 177 179 184 182 175
329 331 333 333 330 326 326 327 323 320 320 317 315 315 317 323 331 333 334 323 307 303 295 297 292 296 303 286 274 269 260 254 248 243 239 231 226 223 220 219 220 218 218 209 199 197 197 202 210 213 222 224 224 252 258 234 231 229 230 235 234 240 249 240 224 215 217 223 213 212 228 234 222 211 216 210 200 206 202 196 195 186 181 180 183 185 182 180
330 332 333 333 332 328 325 326 325 323 322 320 318 317 321 328 334 338 338 329 322 318 305 304 292 299 330 281 280 285 272 260 251 243 237 230 223 222 220 219 219 217 216 217 210 199 192 201 209 210 217 222 225 236 243 232 227 224 225 231 229 230 240 239 222 213 214 215 210 214 223 227 215 209 216 211 205 207 202 199 198 193 188 183 184 185 181 182
329 330 331 330 330 328 324 322 323 323 320 321 319 319 325 328 336 341 339 339 339 332 315 303 302 309 254 260 278 292 288 276 258 246 240 232 222 221 220 217 218 216 212 214 215 207 201 202 201 206 215 218 221 223 229 228 221 218 221 227 231 228 231 235 222 210 213 216 216 216 221 234 227 212 213 207 198 202 205 202 200 199 191 184 186 184 180 183
326 326 327 326 326 326 323 318 319 321 319 320 316 318 325 324 334 340 339 349 353 359 342 308 328 356 271 256 266 291 294 291 279 260 244 235 226 221 219 217 215 212 210 214 217 212 209 205 200 208 217 215 215 213 217 222 218 218 218 221 229 230 230 232 227 215 212 216 220 218 218 229 228 208 206 208 202 207 214 209 205 201 190 186 188 186 182 184
323 321 322 323 323 324 321 316 316 317 317 319 316 316 316 317 334 336 330 342 336 356 347 274 251 258 243 244 263 287 293 293 290 273 251 236 224 218 215 215 214 210 207 211 216 212 206 202 202 211 215 212 213 212 215 221 222 227 227 225 228 230 231 231 232 224 211 215 221 222 222 216 209 212 222 222 212 214 221 216 215 208 194 190 188 186 185 186
321 319 319 320 320 322 319 316 315 312 314 315 314 312 308 322 343 317 303 316 299 276 249 251 255 250 242 248 266 281 285 289 285 267 260 235 212 208 212 211 209 206 202 205 212 208 201 202 208 212 213 214 215 217 221 226 233 241 238 235 231 231 234 231 232 228 212 219 225 225 230 223 207 217 231 233 222 221 224 224 223 211 198 197 189 184 187 186
322 318 318 318 319 321 319 316 313 309 310 308 308 310 306 322 320 251 287 304 288 277 262 260 255 249 250 252 263 271 271 289 285 261 250 229 196 191 207 201 195 203 201 200 207 203 203 211 215 215 215 217 221 223 226 229 235 243 243 243 238 232 234 232 230 229 216 221 232 228 233 233 221 222 227 229 229 223 219 225 225 209 199 201 190 187 189 183
325 320 318 318 319 319 318 317 314 310 309 306 306 307 302 308 298 277 293 294 284 286 273 266 252 246 253 252 257 261 259 298 283 275 236 201 176 178 210 206 195 207 204 198 201 200 209 218 219 219 218 219 224 224 226 229 232 236 238 242 243 235 234 233 231 232 222 220 232 232 232 234 231 230 221 222 234 236 230 230 221 206 201 202 194 192 191 185
330 324 321 322 320 318 319 318 317 314 312 309 307 306 303 302 303 300 299 296 292 290 278 263 247 247 252 251 249 243 231 173 238 279 246 187 168 178 208 218 204 211 207 202 204 203 212 223 220 218 218 219 223 224 222 225 229 231 233 235 238 236 233 233 229 230 229 226 231 233 234 234 233 232 223 222 232 235 235 234 219 206 205 206 200 195 191 188
333 328 327 328 325 322 322 322 322 322 318 315 309 306 305 300 303 301 297 304 286 274 280 266 243 251 247 241 235 214 220 201 194 257 239 167 169 204 212 218 212 216 214 209 212 215 219 226 224 219 218 219 220 222 220 222 227 229 231 233 235 235 236 238 235 232 232 229 229 238 244 239 231 231 228 221 220 220 223 226 220 213 213 215 205 197 196 193
336 332 334 334 331 326 325 328 329 330 327 321 313 308 307 302 304 300 299 313 250 239 270 276 257 264 250 238 231 215 236 229 213 242 229 175 189 217 216 220 219 219 221 215 217 225 227 226 225 218 216 219 220 221 220 220 227 229 230 233 235 239 242 244 244 244 239 231 227 232 243 244 229 226 229 220 218 226 227 223 222 217 214 217 211 200 199 196
335 335 339 337 335 330 328 330 331 337 334 320 315 311 308 304 303 300 303 297 227 209 227 267 264 259 253 238 215 206 223 236 242 248 232 208 204 204 209 222 224 221 223 221 222 228 229 224 223 217 214 218 220 223 221 218 226 232 231 232 236 241 246 246 243 242 240 237 232 226 231 246 235 223 225 222 222 231 234 230 222 213 213 219 218 206 199 194
333 335 337 335 333 329 327 327 327 336 328 312 313 313 309 306 302 311 304 268 218 191 200 224 232 225 243 209 174 168 235 226 255 273 236 222 212 205 211 215 221 225 222 223 227 227 225 222 220 215 214 219 220 221 218 212 223 233 232 233 236 236 239 242 242 242 240 244 247 234 229 241 245 233 224 219 220 224 230 231 216 210 220 227 221 208 201 200
331 332 333 332 331 326 322 321 321 323 315 307 311 309 309 305 294 353 280 266 198 164 200 237 256 244 254 234 178 194 246 221 237 276 243 224 218 213 220 221 226 233 227 225 231 228 221 221 221 218 218 221 220 219 216 215 224 231 230 236 241 236 235 235 238 243 244 248 249 239 232 237 243 239 227 218 220 219 220 220 212 213 220 221 219 212 204 204
330 330 329 328 326 323 319 316 316 316 313 312 309 308 315 317 329 177 245 265 216 180 209 251 274 253 256 263 226 235 243 212 215 253 253 250 241 215 210 224 234 243 237 230 236 234 224 223 222 221 221 221 221 220 220 222 225 228 229 237 242 240 237 233 234 240 243 247 246 237 234 239 242 234 226 223 224 221 218 217 215 216 213 211 222 225 212 207
330 328 327 326 323 321 318 315 315 315 315 314 310 316 337 111 146 237 240 223 145 187 216 237 273 262 330 236 243 267 249 223 232 249 258 260 248 232 218 226 233 244 246 240 239 237 235 233 223 222 224 221 221 223 222 222 223 225 229 234 240 240 240 237 234 237 241 243 242 238 234 241 247 234 227 228 227 221 218 218 216 212 208 213 223 225 217 213
330 326 326 325 322 322 321 316 315 317 320 313 309 348 46 121 228 253 254 208 182 204 226 279 290 259 343 222 234 290 269 243 253 247 248 246 243 246 241 234 231 237 244 243 242 238 236 237 228 223 225 222 221 224 223 221 219 220 223 226 232 232 231 234 230 228 235 241 238 237 234 238 244 236 228 229 227 222 218 217 216 209 210 222 227 223 218 216
327 325 326 324 321 321 318 311 310 313 319 310 314 66 67 254 243 241 251 245 232 177 162 133 61 113 314 246 240 284 259 244 270 238 232 231 230 227 219 223 229 233 237 234 233 233 231 233 232 226 223 219 218 220 220 217 213 216 217 217 222 223 219 222 221 219 230 239 236 233 230 235 240 238 234 231 226 223 218 214 216 213 214 224 230 228 225 219
324 324 324 322 320 319 314 310 305 306 312 299 99 99 236 260 251 242 284 280 151 96 168 206 2 313 306 275 244 264 256 252 267 251 239 229 230 230 221 232 236 232 253 253 235 230 227 226 227 225 222 215 212 213 212 209 208 211 212 210 214 218 216 214 216 223 232 234 232 230 230 235 239 238 235 234 230 225 221 216 217 218 215 217 225 230 228 220
323 324 322 321 321 320 318 313 304 299 296 255 131 160 235 248 256 268 304 59 75 20 267 263 285 288 287 275 260 265 256 262 265 254 249 231 230 230 217 235 238 231 265 281 253 239 233 225 219 219 219 212 209 212 213 211 212 213 212 214 218 220 224 223 216 224 235 235 226 222 225 233 235 234 231 231 230 228 226 219 217 220 216 212 216 220 219 214
325 326 324 325 327 331 329 320 324 306 243 122 141 225 243 250 267 292 271 68 23 338 307 285 281 279 259 235 274 280 238 240 280 272 250 231 233 231 205 190 249 229 253 270 259 253 249 244 225 216 215 211 211 213 214 219 223 217 212 217 221 220 227 242 244 238 239 243 227 216 221 230 235 237 230 227 226 224 226 223 217 218 216 211 208 208 212 213
329 331 332 338 343 349 349 349 8 5 152 123 200 233 248 269 325 13 354 327 346 324 314 297 266 248 242 217 221 278 230 252 280 292 256 227 229 240 223 241 262 230 246 267 274 273 254 249 241 216 212 212 215 215 212 218 225 217 210 218 223 220 226 241 252 251 248 250 235 220 222 224 229 235 226 221 223 221 220 220 216 215 213 210 207 206 211 212
331 331 335 355 354 351 359 5 15 49 126 135 224 246 16 328 281 324 278 276 311 305 301 297 255 232 262 264 249 207 295 290 270 260 252 222 210 215 218 261 265 252 245 251 265 286 284 267 252 221 218 218 218 219 216 218 224 223 215 215 218 220 227 238 246 248 243 246 238 230 228 218 215 223 218 213 218 218 216 217 216 215 211 207 205 206 209 206
336 338 347 4 357 350 358 8 66 101 118 161 245 261 344 327 288 296 273 272 303 301 287 283 269 265 273 273 277 294 314 299 278 257 254 227 206 203 197 257 280 276 253 239 244 264 294 285 259 222 225 226 218 221 223 221 222 229 232 222 212 214 219 226 234 241 235 237 233 229 235 229 217 214 213 213 215 214 214 215 215 215 210 207 207 206 208 205
357 15 347 332 346 348 359 52 106 99 110 246 264 245 238 315 318 308 287 284 294 283 290 289 284 282 263 267 290 309 298 279 297 296 257 232 216 220 232 251 273 297 273 242 239 255 272 276 263 239 227 229 222 219 223 224 218 223 236 236 224 222 219 217 224 232 236 243 238 223 228 233 227 219 217 217 215 214 214 213 213 214 213 212 213 211 208 206
40 59 283 299 330 336 56 79 75 61 327 258 282 146 182 18 356 335 307 111 260 272 298 312 283 276 285 286 280 276 277 283 285 278 262 255 244 237 263 265 257 274 284 259 242 251 258 260 261 256 240 228 225 219 219 225 218 213 225 231 227 226 226 223 222 224 230 241 246 235 227 230 230 223 219 218 213 212 213 213 212 213 214 215 216 213 210 208
60 64 272 293 323 332 82 59 44 35 278 245 97 149 199 174 32 356 333 342 42 276 295 304 275 280 296 296 278 267 275 282 273 264 260 255 245 239 245 261 260 269 283 269 248 245 245 247 255 260 249 229 223 222 221 226 225 219 222 225 224 221 222 225 221 217 222 230 239 245 242 242 234 215 213 218 217 213 212 213 214 213 214 214 213 212 210 210
41 340 272 294 337 87 82 55 62 110 144 193 153 170 206 194 323 353 345 351 20 290 309 315 283 283 295 284 271 270 278 276 268 265 259 250 250 256 263 276 274 279 279 261 253 244 232 235 251 255 250 242 234 229 229 234 234 230 229 231 229 224 222 227 225 214 217 223 230 240 245 251 230 183 209 219 214 212 207 206 212 216 218 216 213 212 209 209
19 324 294 357 70 91 79 72 129 88 117 176 162 155 129 110 14 0 349 355 358 291 304 312 285 278 285 288 274 270 282 278 264 260 255 250 252 253 267 283 275 281 282 257 257 256 235 232 255 257 254 259 258 245 234 237 239 234 234 236 233 228 225 228 231 228 224 219 218 223 233 237 195 153 197 214 203 208 206 199 205 210 214 213 211 211 209 208
37 33 11 11 71 96 86 74 96 87 104 116 96 69 120 152 146 87 345 330 339 301 293 281 275 275 271 279 272 265 275 275 260 256 256 253 255 258 273 279 260 255 287 246 226 244 240 231 242 252 254 253 251 244 232 229 231 233 233 232 232 231 227 226 229 234 237 236 232 226 220 220 196 140 149 171 179 199 204 200 205 205 206 206 206 209 209 206
33 36 16 349 35 94 116 114 103 104 102 98 93 82 46 315 316 111 111 315 289 283 294 271 260 269 267 269 272 267 265 262 257 263 266 257 258 266 284 283 255 239 262 243 221 226 248 241 238 243 245 233 229 231 230 233 239 238 236 233 230 229 227 225 227 230 235 247 253 247 225 216 215 203 192 189 193 207 200 192 200 203 204 202 201 207 209 207
45 40 50 345 13 52 89 105 105 116 119 112 84 67 61 340 336 332 131 193 281 256 279 268 258 266 275 288 295 287 271 263 258 261 268 264 259 257 257 268 269 250 246 243 232 234 251 254 247 246 247 249 259 282 286 295 292 265 253 244 230 226 229 228 227 230 229 235 247 247 243 238 235 225 212 210 219 218 210 201 198 200 203 203 202 201 198 199
47 359 108 123 46 37 36 56 81 100 121 151 193 46 27 19 334 303 284 247 290 282 256 266 285 294 292 306 304 289 273 263 260 258 259 258 260 262 259 261 268 261 255 252 244 245 253 254 249 247 249 254 266 279 282 288 290 276 271 265 245 240 240 230 227 235 233 229 236 235 238 255 256 224 198 203 211 204 199 196 191 186 184 187 196 195 190 188
33 3 99 126 113 54 42 48 62 66 71 88 126 120 36 345 310 297 308 308 295 293 255 261 306 305 295 298 290 282 274 264 263 261 257 254 259 268 273 269 259 255 257 258 247 241 248 254 251 250 255 257 261 268 269 272 276 272 271 270 265 272 264 236 228 236 237 233 233 229 227 235 238 221 186 176 169 158 156 150 147 154 157 152 164 184 188 192
33 30 82 116 93 73 77 69 71 67 69 87 86 74 56 334 326 299 289 286 284 281 263 251 281 281 292 296 284 276 270 267 272 272 270 277 277 270 273 274 264 250 247 245 241 239 246 255 254 253 259 262 261 263 263 265 268 266 267 267 262 269 275 247 229 231 238 239 237 233 231 230 229 227 225 194 173 149 60 126 144 155 161 150 127 150 180 189
27 24 45 76 76 79 71 64 83 78 55 78 79 25 14 358 329 308 288 290 284 277 270 261 272 279 289 291 282 274 270 272 281 286 287 283 277 271 270 270 263 252 246 243 241 238 242 252 253 255 261 262 260 262 263 262 262 261 260 258 256 256 254 241 231 230 236 240 237 234 233 237 239 236 245 252 229 208 212 182 181 192 182 177 160 126 188 204
28 25 39 69 70 69 75 66 77 81 45 44 71 4 21 5 314 315 291 272 271 272 268 257 267 284 291 286 279 276 275 275 277 280 282 277 273 271 268 264 259 254 250 248 247 241 240 249 251 250 256 260 258 258 260 261 260 259 254 248 247 247 239 233 233 234 238 238 235 232 230 237 245 243 247 259 247 226 235 278 236 200 201 206 202 216 287 238
31 27 37 72 71 54 74 66 39 61 32 344 58 12 352 337 314 322 292 270 292 301 286 275 278 287 290 286 282 278 278 280 279 278 277 273 270 268 263 259 255 255 252 251 253 248 242 247 248 246 250 255 255 253 257 261 258 251 246 241 239 237 234 235 237 238 242 240 232 230 229 233 242 247 251 256 247 233 237 248 233 218 225 233 230 248 274 249